Volver al catálogo

CZ-4 DEB

ActivoSSO
NORAD 26260·DEBRIS·🇨🇳 China

Lanzado Oct 14, 1999 desde Taiyuan Satellite Launch Center

Loading…

Próximos Pases (próximas 24 horas)

TLE

ActualizadoSource: Space-Track

Época: Sep 14, 2026, 11:55 UTC

1 26260U 99057EW  26257.49665529  .00005250  00000-0  69993-3 0  9995
2 26260  98.3383 347.2953 0054741  71.9965 288.7200 14.79025864397308

Sigue CZ-4 DEB en tiempo real con AllMySat

Download on the App Store